Weather History for PADQ - October, 2011

Change the Weather History Date:

Monday, October 3, 2011

  Actual Average Record
Temperature  
Mean Temperature 44 °F 44 °F  
Max Temperature 49 °F 50 °F 61 °F (1967)
Min Temperature 39 °F 38 °F 27 °F (1974)
Degree Days  
Heating Degree Days 21 21  
Month to date heating degree days 65 62  
Since 1 July heating degree days 1157 1160  
Cooling Degree Days 0    
Month to date cooling degree days 0  
Year to date cooling degree days 0  
Moisture  
Dew Point 41 °F    
Average Humidity 0    
Maximum Humidity 0    
Minimum Humidity 0    
Precipitation  
Precipitation 0.21 in 0.28 in 2.73 in (1975)
Month to date precipitation 0.89 0.85  
Year to date precipitation 55.76 54.99  
Snow  
Snow 0.00 in 0.00 in T in (1984)
Month to date snowfall 0.0 0.0  
Since 1 July snowfall 0.0 0.0  
Since 1 September snowfall 0.0 0.0  
Snow Depth 0.00 in    
Sea Level Pressure  
Sea Level Pressure 29.39 in    
Wind  
Wind Speed 2 mph (North)    
Max Wind Speed 5 mph    
Max Gust Speed 6 mph    
Visibility 9 miles    
Events Rain    
T = Trace of Precipitation, MM = Missing Value Source: NWS Daily Summary

Daily Weather History Graph

Daily Weather History Graph

Search for Another Location

Airport or City:

Trip Planner

Search our weather history database for the weather conditions in past years. The results will help you decide how hot, cold, wet, or windy it might be!

Date:

Astronomy

Oct. 03, 2011 Rise Set
Actual Time 8:18 AM AKDT 7:38 PM AKDT
Civil Twilight 7:39 AM AKDT 8:17 PM AKDT
Nautical Twilight 6:53 AM AKDT 9:02 PM AKDT
Astronomical Twilight 6:06 AM AKDT 9:49 PM AKDT
Moon 4:33 PM AKDT (10/3) 11:47 PM AKDT (10/3)
Length of Visible Light 12h 37m
Length of Day
11h 20m
Waxing Crescent, 47% of the Moon is Illuminated
Oct 3
Waxing Crescent
Oct 3
First Quarter
Oct 11
Full
Oct 19
Last Quarter
Oct 26
New

Hourly Weather History & Observations

Time (AKDT) Temp. Windchill Dew Point Humidity Pressure Visibility Wind Dir Wind Speed Gust Speed Precip Events Conditions
12:53 AM 43.0 °F - 42.1 °F 97% 29.42 in 10.0 mi Calm Calm - N/A   Mostly Cloudy
1:34 AM 42.8 °F - 41.0 °F 93% 29.42 in 10.0 mi Calm Calm - 0.05 in Rain Light Rain
1:53 AM 43.0 °F 40.3 °F 41.0 °F 93% 29.42 in 10.0 mi SSW 4.6 mph - 0.05 in Rain Light Rain
2:53 AM 43.0 °F - 42.1 °F 97% 29.41 in 8.0 mi Calm Calm - 0.00 in Rain Light Rain
3:36 AM 42.8 °F - 41.0 °F 93% 29.40 in 6.0 mi Calm Calm - 0.11 in Rain Rain
3:53 AM 43.0 °F 41.3 °F 39.9 °F 89% 29.40 in 10.0 mi South 3.5 mph - 0.12 in Rain Light Rain
4:53 AM 42.1 °F 40.2 °F 39.9 °F 92% 29.38 in 10.0 mi WNW 3.5 mph - 0.04 in Rain Light Rain
5:53 AM 41.0 °F - 39.0 °F 93% 29.37 in 10.0 mi Calm Calm - 0.00 in   Mostly Cloudy
6:53 AM 41.0 °F - 39.0 °F 93% 29.37 in 10.0 mi Calm Calm - 0.00 in   Mostly Cloudy
7:53 AM 39.0 °F 35.7 °F 37.9 °F 96% 29.36 in 10.0 mi West 4.6 mph - N/A   Mostly Cloudy
8:53 AM 39.9 °F - 39.0 °F 97% 29.35 in 10.0 mi Calm Calm - N/A   Overcast
9:53 AM 42.1 °F - 39.0 °F 89% 29.35 in 10.0 mi Calm Calm - 0.00 in Rain Light Rain
10:53 AM 43.0 °F - 39.0 °F 86% 29.35 in 10.0 mi Calm Calm - 0.00 in   Overcast
11:53 AM 45.0 °F - 39.9 °F 82% 29.35 in 10.0 mi Calm Calm - 0.00 in Rain Light Rain
12:53 PM 46.9 °F - 41.0 °F 80% 29.34 in 10.0 mi Calm Calm - 0.00 in   Mostly Cloudy
1:53 PM 48.0 °F - 42.1 °F 80% 29.34 in 10.0 mi ENE 3.5 mph - N/A   Mostly Cloudy
2:53 PM 46.9 °F - 41.0 °F 80% 29.35 in 10.0 mi Calm Calm - N/A   Mostly Cloudy
3:53 PM 48.9 °F - 44.1 °F 83% 29.35 in 10.0 mi East 4.6 mph - N/A   Mostly Cloudy
4:53 PM 50.0 °F - 42.1 °F 74% 29.37 in 10.0 mi ENE 3.5 mph - N/A   Mostly Cloudy
5:53 PM 48.9 °F - 43.0 °F 80% 29.38 in 10.0 mi ENE 4.6 mph - N/A   Mostly Cloudy
6:53 PM 46.9 °F - 42.1 °F 83% 29.40 in 10.0 mi NNE 4.6 mph - N/A   Mostly Cloudy
7:17 PM 46.4 °F 45.2 °F 39.2 °F 76% 29.41 in 1.8 mi NE 3.5 mph - 0.03 in Rain Heavy Rain
7:19 PM 46.4 °F - 39.2 °F 76% 29.41 in 5.0 mi Calm Calm - 0.03 in Rain Rain
7:53 PM 46.0 °F - 44.1 °F 93% 29.42 in 10.0 mi Calm Calm - 0.04 in   Overcast
8:53 PM 45.0 °F 42.6 °F 42.1 °F 90% 29.44 in 10.0 mi NW 4.6 mph - N/A   Overcast
9:53 PM 45.0 °F - 42.1 °F 90% 29.46 in 10.0 mi Calm Calm - N/A   Overcast
10:53 PM 45.0 °F 41.2 °F 41.0 °F 86% 29.48 in 10.0 mi NW 6.9 mph - N/A   Mostly Cloudy
11:53 PM 45.0 °F 40.1 °F 41.0 °F 86% 29.49 in 10.0 mi NW 9.2 mph - N/A   Mostly Cloudy